Weather History for Lincoln, CA

Change the Weather History Date:

Saturday, November 16, 2013

  Actual Average (KAUN) Record (KAUN)
Temperature  
Mean Temperature 52 °F -  
Max Temperature 64 °F 60 °F 78 °F (1949)
Min Temperature 41 °F 42 °F 30 °F (1958)
Degree Days  
Heating Degree Days 12    
Growing Degree Days 2 (Base 50)    
Moisture  
Dew Point 34 °F    
Average Humidity 54    
Maximum Humidity 76    
Minimum Humidity 32    
Precipitation  
Precipitation 0.00 in - - ()
Sea Level Pressure  
Sea Level Pressure 29.81 in    
Wind  
Wind Speed 6 mph (SE)    
Max Wind Speed 12 mph    
Max Gust Speed 16 mph    
Visibility 10 miles    
Events      
Averages and records for this station are not official NWS values.
T = Trace of Precipitation, MM = Missing Value Source: NWS Daily Summary

Daily Weather History Graph

Daily Weather History Graph

Search for Another Location

Airport:

Trip Planner

Search our weather history database for the weather conditions in past years. The results will help you decide how hot, cold, wet, or windy it might be!

Date:

Astronomy

Nov. 16, 2013 Rise Set
Actual Time 6:49 AM PST 4:50 PM PST
Civil Twilight 6:20 AM PST 5:19 PM PST
Nautical Twilight 5:48 AM PST 5:51 PM PST
Astronomical Twilight 5:17 AM PST 6:23 PM PST
Moon 4:29 PM PST (11/16) 5:51 AM PST (11/16)
Length of Visible Light 10h 58m
Length of Day
10h 00m
Waxing Gibbous, 99% of the Moon is Illuminated
Nov 16
Waxing Gibbous
Nov 17
Full
Nov 25
Last Quarter
Dec 2
New
Dec 9
First Quarter

Hourly Weather History & Observations

Time (PST) Temp. Windchill Dew Point Humidity Pressure Visibility Wind Dir Wind Speed Gust Speed Precip Events Conditions
12:15 AM 42.8 °F 40.1 °F 30.2 °F 61% 29.75 in 10.0 mi SE 4.6 mph - N/A   Clear
12:35 AM 44.6 °F 41.4 °F 32.0 °F 61% 29.73 in 10.0 mi SE 5.8 mph - N/A   Clear
12:55 AM 44.6 °F - 32.0 °F 61% 29.74 in 10.0 mi Calm Calm - N/A   Clear
1:15 AM 42.8 °F - 32.0 °F 66% 29.74 in 10.0 mi Calm Calm - N/A   Clear
1:35 AM 44.6 °F 43.1 °F 32.0 °F 61% 29.74 in 10.0 mi ESE 3.5 mph - N/A   Clear
1:55 AM 42.8 °F 40.1 °F 32.0 °F 66% 29.74 in 10.0 mi ESE 4.6 mph - N/A   Clear
2:15 AM 42.8 °F 41.1 °F 32.0 °F 66% 29.74 in 10.0 mi ESE 3.5 mph - N/A   Clear
2:35 AM 44.6 °F 41.4 °F 32.0 °F 61% 29.75 in 10.0 mi East 5.8 mph - N/A   Clear
2:55 AM 44.6 °F 41.4 °F 32.0 °F 61% 29.75 in 10.0 mi ESE 5.8 mph - N/A   Clear
3:15 AM 48.2 °F - 32.0 °F 54% 29.74 in 10.0 mi ESE 6.9 mph - N/A   Clear
3:35 AM 50.0 °F - 33.8 °F 54% 29.73 in 10.0 mi ESE 6.9 mph - N/A   Clear
3:55 AM 50.0 °F - 33.8 °F 54% 29.73 in 10.0 mi ESE 6.9 mph - N/A   Clear
4:15 AM 50.0 °F - 32.0 °F 50% 29.73 in 10.0 mi ESE 8.1 mph - N/A   Scattered Clouds
4:35 AM 50.0 °F - 32.0 °F 50% 29.73 in 10.0 mi ESE 5.8 mph - N/A   Scattered Clouds
4:55 AM 46.4 °F 43.5 °F 32.0 °F 57% 29.75 in 10.0 mi East 5.8 mph - N/A   Clear
5:15 AM 44.6 °F 41.4 °F 32.0 °F 61% 29.76 in 10.0 mi East 5.8 mph - N/A   Clear
5:35 AM 46.4 °F 44.3 °F 32.0 °F 57% 29.75 in 10.0 mi ESE 4.6 mph - N/A   Scattered Clouds
5:55 AM 42.8 °F 39.3 °F 32.0 °F 66% 29.76 in 10.0 mi South 5.8 mph - N/A   Clear
6:15 AM 44.6 °F 41.4 °F 32.0 °F 61% 29.76 in 10.0 mi SE 5.8 mph - N/A   Clear
6:35 AM 44.6 °F 42.2 °F 32.0 °F 61% 29.78 in 10.0 mi SE 4.6 mph - N/A   Clear
6:55 AM 44.6 °F 41.4 °F 33.8 °F 66% 29.78 in 10.0 mi SE 5.8 mph - N/A   Clear
7:15 AM 44.6 °F 40.2 °F 33.8 °F 66% 29.78 in 10.0 mi SSE 8.1 mph - N/A   Clear
7:35 AM 46.4 °F 43.5 °F 33.8 °F 62% 29.79 in 10.0 mi ESE 5.8 mph - N/A   Clear
7:55 AM 50.0 °F - 35.6 °F 58% 29.81 in 10.0 mi SE 6.9 mph - N/A   Clear
8:15 AM 51.8 °F - 37.4 °F 58% 29.82 in 10.0 mi SE 4.6 mph - N/A   Scattered Clouds
8:35 AM 51.8 °F - 37.4 °F 58% 29.82 in 10.0 mi SE 6.9 mph - N/A   Scattered Clouds
8:55 AM 53.6 °F - 37.4 °F 54% 29.83 in 10.0 mi SSE 9.2 mph - N/A   Clear
9:15 AM 53.6 °F - 39.2 °F 58% 29.83 in 10.0 mi SE 8.1 mph - N/A   Clear
9:35 AM 55.4 °F - 39.2 °F 54% 29.83 in 10.0 mi SE 10.4 mph - N/A   Clear
9:55 AM 55.4 °F - 39.2 °F 54% 29.83 in 10.0 mi SSE 10.4 mph - N/A   Clear
10:15 AM 55.4 °F - 37.4 °F 51% 29.83 in 10.0 mi SE 10.4 mph - N/A   Clear
10:35 AM 59.0 °F - 37.4 °F 45% 29.84 in 10.0 mi ESE 9.2 mph - N/A   Clear
10:55 AM 59.0 °F - 35.6 °F 42% 29.83 in 10.0 mi SSE 9.2 mph - N/A   Clear
11:15 AM 60.8 °F - 35.6 °F 39% 29.83 in 10.0 mi SE 11.5 mph - N/A   Clear
11:35 AM 60.8 °F - 35.6 °F 39% 29.83 in 10.0 mi SSE 11.5 mph - N/A   Clear
11:55 AM 60.8 °F - 35.6 °F 39% 29.82 in 10.0 mi SE 11.5 mph 16.1 mph N/A   Clear
12:15 PM 62.6 °F - 35.6 °F 37% 29.82 in 10.0 mi SE 11.5 mph - N/A   Clear
12:35 PM 62.6 °F - 33.8 °F 34% 29.81 in 10.0 mi SSE 9.2 mph - N/A   Clear
12:55 PM 62.6 °F - 33.8 °F 34% 29.81 in 10.0 mi SSE 10.4 mph - N/A   Clear
1:15 PM 64.4 °F - 33.8 °F 32% 29.80 in 10.0 mi SSE 9.2 mph - N/A   Clear
1:35 PM 64.4 °F - 33.8 °F 32% 29.80 in 10.0 mi SSE 4.6 mph - N/A   Clear
1:55 PM 64.4 °F - 33.8 °F 32% 29.80 in 10.0 mi SSE 6.9 mph - N/A   Clear
2:15 PM 64.4 °F - 33.8 °F 32% 29.80 in 10.0 mi SSE 8.1 mph - N/A   Clear
2:35 PM 64.4 °F - 33.8 °F 32% 29.80 in 10.0 mi South 8.1 mph - N/A   Clear
2:55 PM 64.4 °F - 33.8 °F 32% 29.80 in 10.0 mi South 8.1 mph - N/A   Clear
3:15 PM 64.4 °F - 33.8 °F 32% 29.80 in 10.0 mi SSW 8.1 mph - N/A   Clear
3:35 PM 62.6 °F - 33.8 °F 34% 29.80 in 10.0 mi South 6.9 mph - N/A   Clear
3:55 PM 62.6 °F - 33.8 °F 34% 29.80 in 10.0 mi South 5.8 mph - N/A   Clear
4:15 PM 62.6 °F - 32.0 °F 32% 29.81 in 10.0 mi South 5.8 mph - N/A   Clear
4:35 PM 59.0 °F - 32.0 °F 36% 29.81 in 10.0 mi South 4.6 mph - N/A   Clear
4:55 PM 57.2 °F - 32.0 °F 38% 29.81 in 10.0 mi South 3.5 mph - N/A   Clear
5:15 PM 57.2 °F - 33.8 °F 41% 29.82 in 10.0 mi South 3.5 mph - N/A   Clear
5:35 PM 55.4 °F - 33.8 °F 44% 29.82 in 10.0 mi SSE 5.8 mph - N/A   Clear
5:55 PM 53.6 °F - 33.8 °F 47% 29.83 in 10.0 mi SSE 4.6 mph - N/A   Clear
6:15 PM 53.6 °F - 33.8 °F 47% 29.83 in 10.0 mi South 4.6 mph - N/A   Clear
6:35 PM 53.6 °F - 33.8 °F 47% 29.84 in 10.0 mi SE 4.6 mph - N/A   Clear
6:55 PM 44.6 °F 41.4 °F 32.0 °F 61% 29.85 in 10.0 mi East 5.8 mph - N/A   Clear
7:15 PM 42.8 °F 39.3 °F 32.0 °F 66% 29.85 in 10.0 mi East 5.8 mph - N/A   Clear
7:35 PM 42.8 °F 38.6 °F 33.8 °F 70% 29.85 in 10.0 mi East 6.9 mph - N/A   Clear
7:55 PM 42.8 °F 38.0 °F 33.8 °F 70% 29.86 in 10.0 mi East 8.1 mph - N/A   Clear
8:15 PM 44.6 °F 41.4 °F 33.8 °F 66% 29.86 in 10.0 mi East 5.8 mph - N/A   Clear
8:35 PM 44.6 °F 42.2 °F 33.8 °F 66% 29.87 in 10.0 mi East 4.6 mph - N/A   Clear
8:55 PM 44.6 °F 42.2 °F 35.6 °F 71% 29.87 in 10.0 mi East 4.6 mph - N/A   Clear
9:15 PM 44.6 °F 41.4 °F 33.8 °F 66% 29.88 in 10.0 mi East 5.8 mph - N/A   Clear
9:35 PM 42.8 °F 41.1 °F 35.6 °F 76% 29.88 in 10.0 mi ESE 3.5 mph - N/A   Clear
9:55 PM 44.6 °F 43.1 °F 33.8 °F 66% 29.89 in 10.0 mi ESE 3.5 mph - N/A   Clear
10:15 PM 44.6 °F 41.4 °F 33.8 °F 66% 29.89 in 10.0 mi East 5.8 mph - N/A   Clear
10:35 PM 42.8 °F 38.0 °F 33.8 °F 70% 29.89 in 10.0 mi East 8.1 mph - N/A   Clear
10:55 PM 42.8 °F 38.0 °F 33.8 °F 70% 29.90 in 10.0 mi East 8.1 mph - N/A   Clear
11:15 PM 41.0 °F 35.8 °F 33.8 °F 76% 29.90 in 10.0 mi East 8.1 mph - N/A   Clear
11:35 PM 41.0 °F 36.4 °F 33.8 °F 76% 29.91 in 10.0 mi East 6.9 mph - N/A   Clear
11:55 PM 44.6 °F 40.7 °F 33.8 °F 66% 29.91 in 10.0 mi East 6.9 mph - N/A   Clear